Location: Calvatone
(45.1167°N, 10.4333°E)
Time: 10:08:17
(UTC+00:00)

DMSP 5D-2 F13 DEB - Pass Details

Date: 23 June 2024
Orbit: 755 x 782 km, 98.6° (Epoch: 18 July)

Event Time Altitude Azimuth Distance (km) Brightness Sun altitude
Rises 19:51:53 0° 218° (SW) 3,268 ? -6.6°
Reaches altitude 10° 19:55:39 10° 246° (WSW) 2,345 ? -7.1°
Maximum altitude 19:57:53 13° 272° (W) 2,157 ? -7.4°
Drops below altitude 10° 20:00:08 10° 298° (WNW) 2,348 ? -7.7°
Sets 20:03:56 0° 326° (NNW) 3,278 ? -8.1°
